Home > Weather > Norwalk > Past weeks

Flag for U.S.A. Weather for the Past 2 Weeks in Norwalk, California, U.S.A.

Now
73 °F

Clear.


Feels Like: 76 °F
Forecast: 53 / 85 °F
Wind: No wind

Location: Fullerton Municipal Airport

Current Time: Feb 11, 2016 at 7:41:04 PM

Latest Report: Feb 11, 2016 at 5:53 PM


Visibility: 10 mi

Pressure: 30.07 "Hg

Humidity: 24%

Dew point: 34 °F

Location of NorwalkLocation

Historic Weather in Norwalk — Graph

°F

Norwalk Temperature Yesterday

Maximum temperature yesterday: 89 °F (at 1:53 PM)
Minimum temperature yesterday: 53 °F (at 6:53 AM)
Average temperature yesterday: 68 °F

High & Low Weather Summary for the Past Weeks

 TemperatureHumidityPressure
High92 °F (Feb 9, 1:53 PM)90% (Jan 31, 1:02 AM)30.35 "Hg (Jan 31, 1:02 AM)
Low36 °F (Feb 2, 5:53 AM)8% (Feb 7, 2:53 PM)29.61 "Hg (Jan 31, 2:00 PM)
Average62 °F43%30.11 "Hg
* Reported Jan 27 5:53 PM — Feb 11 5:53 PM, Norwalk, Weather by CustomWeather, © 2016

Note: Actual official high and low records may vary slightly from our data, if they occured in-between our weather recording intervals... More about our weather records

Advertising

Norwalk Weather History for the Previous 24 Hours

 ConditionsComfort  
Time TempWeatherWind HumidityBarometerVisibility
5:53 PM
Thu, Feb 11
73 °FClear.No wind24%30.07 "Hg10 mi
4:53 PM78 °FSunny.5 mph18%30.05 "Hg10 mi
3:53 PM79 °FSunny.7 mph17%30.04 "Hg10 mi
2:53 PM83 °FSunny.6 mph17%30.03 "Hg10 mi
1:53 PM84 °FSunny.3 mph18%30.03 "Hg8 mi
12:53 PM83 °FSunny.No wind18%30.06 "Hg8 mi
11:53 AM81 °FSunny.No wind18%30.09 "Hg8 mi
10:53 AM77 °FSunny.3 mph23%30.11 "Hg9 mi
9:53 AM72 °FSunny.No wind25%30.11 "Hg10 mi
8:53 AM68 °FSunny.No wind30%30.09 "Hg10 mi
7:53 AM59 °FSunny.No wind48%30.08 "Hg10 mi
6:53 AM51 °FSunny.No wind59%30.07 "Hg10 mi
5:53 AM51 °FClear.No wind61%30.06 "Hg10 mi
4:53 AM52 °FClear.No wind59%30.06 "Hg10 mi
3:53 AM53 °FClear.No wind56%30.05 "Hg10 mi
2:53 AM54 °FClear.No wind59%30.06 "Hg10 mi
1:53 AM55 °FClear.No wind55%30.07 "Hg10 mi
12:53 AM56 °FClear.No wind55%30.07 "Hg10 mi
11:53 PM
Wed, Feb 10
59 °FClear.No wind48%30.08 "Hg10 mi
10:53 PM60 °FClear.No wind46%30.08 "Hg10 mi
9:53 PM61 °FClear.No wind46%30.08 "Hg10 mi
8:53 PM64 °FClear.No wind40%30.08 "Hg10 mi
7:53 PM65 °FClear.No wind39%30.08 "Hg10 mi
Weather by CustomWeather, © 2016

See weather overviewHow to use our weather pages